This demonstration page uses our WeatherBlox Daily Observations layout. Learn more.

Left ArrowRight Arrow

40.92945, -100.16068

Hourly Observations for August 10, 2022

Temp ( °F °C ) Dew Point ( °F °C ) Humidity (%) Winds ( mph kmh ) Pressure ( in mb ) Visibility ( mi km ) Precip ( " mm )
12:15 am 00:15 Clear 72 22 63 17 73 73 SE 8 13 30.05 1018 10 16 0.00 0.00
12:35 am 00:35 Clear 70 21 62 16.8 77 77 SSE 7 11 30.06 1018 10 16 0.00 0.00
12:55 am 00:55 Clear 69 20.4 62 16.6 79 79 SSE 3 6 30.07 1018 10 16 0.00 0.00
1:15 am 01:15 Clear 69 20.3 61 15.9 76 76 SSE 6 9 30.08 1019 10 16 0.00 0.00
1:35 am 01:35 Clear 69 20.4 60 15.5 73 73 SSE 5 7 30.08 1019 10 16 0.00 0.00
1:55 am 01:55 Clear 69 20.5 59 15.2 72 72 SSE 5 7 30.09 1019 10 16 0.00 0.00
2:15 am 02:15 Clear 69 20.7 59 15.2 71 71 SSE 6 9 30.09 1019 10 16 0.00 0.00
2:35 am 02:35 Clear 69 20.4 59 15.2 72 72 SSE 3 6 30.09 1019 10 16 0.00 0.00
2:55 am 02:55 Clear 69 20.6 59 15.1 71 71 SSE 3 6 30.09 1019 10 16 0.00 0.00
3:15 am 03:15 Clear 68 19.9 59 15.1 74 74 S 6 9 30.09 1019 10 16 0.00 0.00
3:35 am 03:35 Clear 69 20.3 59 15 72 72 S 5 7 30.09 1019 10 16 0.00 0.00
3:55 am 03:55 Clear 67 19.5 59 15.2 76 76 S 3 6 30.10 1019 10 16 0.00 0.00
4:15 am 04:15 Clear 66 18.7 59 15.1 80 80 Calm 30.11 1020 10 16 0.00 0.00
4:35 am 04:35 Clear 62 16.7 59 15.2 91 91 Calm 30.13 1020 10 16 0.00 0.00
4:55 am 04:55 Clear 61 16.2 59 15.1 93 93 N 3 6 30.13 1020 10 16 0.00 0.00
5:15 am 05:15 Clear 61 16.3 59 15.1 93 93 N 3 6 30.13 1020 10 16 0.00 0.00
5:35 am 05:35 Clear 61 16.1 59 15 93 93 NNW 5 7 30.13 1020 10 16 0.00 0.00
5:55 am 05:55 Clear 61 16.1 59 14.9 93 93 N 3 6 30.13 1020 10 16 0.00 0.00
6:15 am 06:15 Clear 60 15.5 58 14.4 93 93 Calm 30.14 1021 10 16 0.00 0.00
6:35 am 06:35 Clear 60 15.8 58 14.7 93 93 Calm 30.15 1021 10 16 0.00 0.00
6:55 am 06:55 Sunny 61 16 59 14.8 93 93 E 3 6 30.15 1021 10 16 0.00 0.00
7:15 am 07:15 Sunny 61 16 59 14.8 93 93 E 5 7 30.16 1021 10 16 0.00 0.00
7:35 am 07:35 Sunny 63 17.3 60 15.7 90 90 E 3 6 30.16 1021 10 16 0.00 0.00
7:55 am 07:55 Sunny 67 19.3 61 16.2 82 82 ESE 5 7 30.14 1021 10 16 0.00 0.00
8:15 am 08:15 Sunny 69 20.4 60 15.8 75 75 Calm 30.14 1021 10 16 0.00 0.00
8:35 am 08:35 Sunny 71 21.4 60 15.6 70 70 Calm 30.13 1020 10 16 0.00 0.00
8:55 am 08:55 Sunny 73 22.6 60 15.7 65 65 Calm 30.13 1020 10 16 0.00 0.00
9:15 am 09:15 Sunny 74 23.5 60 15.8 62 62 Calm 30.12 1020 10 16 0.00 0.00
9:35 am 09:35 Sunny 77 24.8 62 16.5 60 60 SSE 3 6 30.11 1020 10 16 0.00 0.00
9:55 am 09:55 Sunny 77 25.2 60 15.4 55 55 SSE 3 6 30.11 1020 10 16 0.00 0.00
10:15 am 10:15 Sunny 80 26.6 60 15.6 51 51 S 3 6 30.09 1019 10 16 0.00 0.00
10:35 am 10:35 Sunny 81 27.3 62 16.9 53 53 SW 5 7 30.09 1019 10 16 0.00 0.00
10:55 am 10:55 Sunny 83 28.2 63 17 51 51 Calm 30.08 1019 10 16 0.00 0.00
11:15 am 11:15 Sunny 85 29.3 64 17.5 49 49 WSW 3 6 30.07 1018 10 16 0.00 0.00
11:35 am 11:35 Sunny 86 30.1 64 17.9 48 48 SW 3 6 30.07 1018 7 11 0.00 0.00
11:55 am 11:55 Sunny 87 30.8 64 17.8 46 46 SSW 5 7 30.06 1018 7 11 0.00 0.00
12:15 pm 12:15 Sunny 88 31.2 64 17.6 44 44 WSW 3 6 30.05 1018 10 16 0.00 0.00
12:35 pm 12:35 Sunny 91 32.6 64 18 42 42 S 7 11 30.03 1017 10 16 0.00 0.00
12:55 pm 12:55 Sunny 91 32.8 63 17.3 40 40 SSW 7 11 30.03 1017 10 16 0.00 0.00
1:15 pm 13:15 Sunny 92 33.3 62 16.9 38 38 S 6 9 30.01 1016 10 16 0.00 0.00
1:35 pm 13:35 Sunny 92 33.4 61 16 35 35 SW 6 9 30.01 1016 7 11 0.00 0.00
1:55 pm 13:55 Sunny 93 34 60 15.4 33 33 SSE 6 9 30.00 1016 7 11 0.00 0.00
2:15 pm 14:15 Sunny 94 34.6 58 14.2 29 29 Calm 29.99 1016 7 11 0.00 0.00
2:35 pm 14:35 Sunny 95 34.9 58 14.6 30 30 S 8 13 29.99 1016 10 16 0.00 0.00
2:55 pm 14:55 Sunny 95 34.8 62 16.6 34 34 SSE 12 19 29.98 1015 10 16 0.00 0.00
3:15 pm 15:15 Sunny 94 34.7 61 16.2 33 33 SSE 12 19 29.98 1015 10 16 0.00 0.00
3:35 pm 15:35 Sunny 95 34.8 60 15.3 31 31 SSE 13 20 29.98 1015 10 16 0.00 0.00
3:55 pm 15:55 Sunny 94 34.7 61 16.1 33 33 SSE 10 17 29.97 1015 10 16 0.00 0.00
4:15 pm 16:15 Sunny 94 34.5 63 17.4 36 36 SSE 13 20 29.97 1015 10 16 0.00 0.00
4:35 pm 16:35 Sunny 94 34.2 63 17.4 37 37 SE 14 22 29.97 1015 10 16 0.00 0.00
4:55 pm 16:55 Sunny 93 33.9 63 17.4 38 38 SSE 14 22 29.98 1015 7 11 0.00 0.00
5:15 pm 17:15 Sunny 93 33.9 64 17.5 38 38 SE 15 24 29.98 1015 10 16 0.00 0.00
5:35 pm 17:35 Sunny 93 34 63 17.3 37 37 SSE 14 22 29.98 1015 10 16 0.00 0.00
5:55 pm 17:55 Sunny 93 33.7 62 16.6 36 36 SSE 14 22 29.97 1015 10 16 0.00 0.00
6:15 pm 18:15 Sunny 92 33.1 63 17.4 39 39 SSE 15 24 29.96 1015 10 16 0.00 0.00
6:35 pm 18:35 Sunny 91 32.7 63 17.4 40 40 SSE 14 22 29.96 1014 10 16 0.00 0.00
6:55 pm 18:55 Sunny 90 32.1 64 18 43 43 SSE 12 19 29.96 1015 10 16 0.00 0.00
7:15 pm 19:15 Sunny 89 31.5 65 18.4 46 46 SSE 10 17 29.96 1014 10 16 0.00 0.00
7:35 pm 19:35 Sunny 88 30.9 65 18.2 47 47 SSE 10 17 29.96 1015 10 16 0.00 0.00
7:55 pm 19:55 Sunny 87 30.4 63 17.2 45 45 SSE 10 17 29.96 1015 10 16 0.00 0.00
8:15 pm 20:15 Sunny 85 29.2 63 17 48 48 SSE 9 15 29.99 1015 10 16 0.00 0.00
8:35 pm 20:35 Sunny 82 27.9 63 17 52 52 SSE 9 15 30.00 1016 10 16 0.00 0.00
8:55 pm 20:55 Clear 80 26.8 62 16.7 54 54 S 7 11 30.01 1016 10 16 0.00 0.00
9:15 pm 21:15 Clear 79 26.1 62 16.5 56 56 S 8 13 30.03 1017 10 16 0.00 0.00
9:35 pm 21:35 Clear 78 25.6 61 16.3 56 56 S 8 13 30.04 1017 10 16 0.00 0.00
9:55 pm 21:55 Clear 78 25.6 61 16.2 56 56 S 9 15 30.04 1017 10 16 0.00 0.00
10:15 pm 22:15 Clear 77 25.1 61 16.1 57 57 S 7 11 30.05 1018 10 16 0.00 0.00
10:35 pm 22:35 Clear 76 24.3 61 16.3 61 61 S 7 11 30.06 1018 10 16 0.00 0.00
10:55 pm 22:55 Clear 76 24.3 61 16.3 61 61 S 8 13 30.06 1018 10 16 0.00 0.00
11:15 pm 23:15 Clear 77 25 61 16.2 58 58 S 10 17 30.06 1018 10 16 0.00 0.00
11:35 pm 23:35 Clear 77 25 61 16 57 57 S 9 15 30.06 1018 10 16 0.00 0.00
11:55 pm 23:55 Clear 77 25 61 16.1 58 58 S 12 19 30.06 1018 10 16 0.00 0.00

Powered by AerisWeather